パンスターズ彗星

C/2015 LC2 ( PanSTARRS )

English version
Home page
Updated on May 21, 2018

---------------------------------------------------------------------

・ プロフィール

発見日 2015年6月7日
発見光度 19.9等
発見者 Pan-STARRS 1 telescope (Haleakala)

・ 写真集

・ 軌道要素

Epoch 2015 May 18.0 TT = JDT 2457160.5
T 2015 May 1.61064 TT                                   MPCW
q   5.8905682            (2000.0)            P               Q
z  -0.0003292      Peri.  341.82651     -0.67450203     -0.26845741
 +/-0.0000013      Node   223.56557     -0.49041436     -0.53339524
e   1.0019394      Incl.   93.71809     -0.55185212     +0.80213473
From 320 observations 2015 June 7-2018 Mar. 17, mean residual 0".6.

・ 光度変化

        m1 = -10.2 + 5 logΔ + 30 log r(t - 550)

---------------------------------------------------------------------

軌道要素はM.P.E.C. 2018-F152に掲載されたものです。
光度グラフはComet for Windowsで作成したものです。

---------------------------------------------------------------------

Copyright(C) Seiichi Yoshida (comet@aerith.net). All rights reserved.